Regional Weather Roundup
Issued by NWS

Home | Current Version | Previous Version | Text Only | Print | Product List | Glossary Off
Versions: 1 2 3 4 5 6 7 8 9 10 11 12 13 14 15 16 17 18 19 20 21 22 23 24 25 26 27 28 29 30 31 32 33 34 35 36 37 38 39 40 41 42 43 44 45 46 47 48 49 50

000
ASUS43 KTOP 211159
RWRKS

WEATHER ROUNDUP FOR KANSAS
NATIONAL WEATHER SERVICE GOODLAND KS
600 AM CST SAT JAN 21 2017

NOTE:  "FAIR" INDICATES FEW OR NO CLOUDS BELOW 12,000 FEET WITH NO
SIGNIFICANT WEATHER AND/OR OBSTRUCTIONS TO VISIBILITY.

KSZ001>006-013>018-027>032-041>047-211300-
NORTHWEST KANSAS

CITY           SKY/WX    TMP DP  RH WIND       PRES   REMARKS
GOODLAND       CLEAR     28  23  81 SW6       29.42S
6HR MIN TEMP:  25; 6HR MAX TEMP:  32;

HAYS           CLEAR     30  29  96 NW6       29.46F
HILL CITY      CLEAR     30  29  96 W7        29.45F
6HR MIN TEMP:  29; 6HR MAX TEMP:  38;

RUSSELL        CLEAR     30  29  96 W6        29.44F
6HR MIN TEMP:  30; 6HR MAX TEMP:  36;

$$

KSZ061>065-074>080-084>089-211300-
SOUTHWEST KANSAS

CITY           SKY/WX    TMP DP  RH WIND       PRES   REMARKS
DODGE CITY     PTCLDY    30  28  92 W3        29.46S
6HR MIN TEMP:  27; 6HR MAX TEMP:  34;

ELKHART          N/A    N/A N/A N/A MISG        N/A
GARDEN CITY    CLOUDY    26  24  92 NW3       29.44S
6HR MIN TEMP:  23; 6HR MAX TEMP:  29;

GREAT BEND     CLEAR     30  29  96 W7        29.46F
LIBERAL        CLOUDY    30  25  80 S9        29.45R
$$

KSZ066>073-081>083-090>101-211300-
SOUTHEAST KANSAS

CITY           SKY/WX    TMP DP  RH WIND       PRES   REMARKS
CHANUTE        CLEAR     36  34  92 S7        29.51R
6HR MIN TEMP:  36; 6HR MAX TEMP:  46;

COFFEYVILLE    CLEAR     39  35  86 S7        29.53R
6HR MIN TEMP:  39; 6HR MAX TEMP:  53;

HUTCHINSON     CLEAR     33  31  92 NW5       29.45F
6HR MIN TEMP:  32; 6HR MAX TEMP:  41;

MEDICINE LODGE   N/A     30  28  92 NW3       29.49R
NEWTON         CLEAR     34  32  92 W3        29.46F
PARSONS        CLEAR     39  35  86 CALM      29.54R
6HR MIN TEMP:  36; 6HR MAX TEMP:  51;

WICHITA INTL   CLEAR     34  32  92 N5        29.46F
6HR MIN TEMP:  31; 6HR MAX TEMP:  37;

WICHITA JABRA  CLEAR     33  32  96 W6        29.47F
6HR MIN TEMP:  33; 6HR MAX TEMP:  42;

WINFIELD       CLOUDY    33  31  92 CALM      29.49F
6HR MIN TEMP:  29; 6HR MAX TEMP:  44;

$$

KSZ007>012-019>026-033>040-048>060-102>105-211300-
NORTHEAST KANSAS

CITY           SKY/WX    TMP DP  RH WIND       PRES   REMARKS
CONCORDIA      CLEAR     35  34  96 SW10      29.45R WCI  27
6HR MIN TEMP:  35; 6HR MAX TEMP:  43;

EMPORIA        CLEAR     35  34  96 W7        29.46F
6HR MIN TEMP:  32; 6HR MAX TEMP:  41;

LAWRENCE       CLOUDY    38  38 100 W7        29.47R FOG
6HR MIN TEMP:  34; 6HR MAX TEMP:  40;

MANHATTAN      CLEAR     37  35  92 SW7       29.47R
6HR MIN TEMP:  37; 6HR MAX TEMP:  43; 6HR PCP:  0.02;

OLATHE IND     FOG       37  37 100 SW12      29.48R VSB 1/4 WCI  29
6HR MIN TEMP:  35; 6HR MAX TEMP:  41;

OLATHE EXE     FOG       36  36 100 S8        29.48R VSB 1/4
6HR MIN TEMP:  35; 6HR MAX TEMP:  41;

SALINA           N/A    N/A N/A N/A MISG        N/A
TOPEKA BILLARD FOG       33  30  88 CALM      29.46S VSB 1/4
6HR MIN TEMP:  33; 6HR MAX TEMP:  42;

TOPEKA FORBES  FOG       38  37  97 SW8       29.46R VSB 1/4
6HR MIN TEMP:  36; 6HR MAX TEMP:  40;

$$




USA.gov is the U.S. government's official web portal to all federal, state and local government web resources and services.